Other Public Products
Issued by NWS Grand Forks, ND

Home | Current Version | Previous Version | Graphics & Text | Print | Product List | Glossary On
Versions: 1 2 3 4 5 6 7 8 9 10 11 12 13 14 15 16 17 18 19 20 21 22 23 24 25 26 27 28 29 30 31 32 33 34 35 36 37 38 39 40 41 42 43 44 45 46 47 48 49 50
000
FPUS83 KFGF 301610
OPUFGF
PRAIRIE TO PINES WEATHER ROUNDUP
NATIONAL WEATHER SERVICE EASTERN NORTH DAKOTA/GRAND FORKS ND
1000 AM CST FRI JAN 30 2015

 **SATELLITE DATA USED TO AUGMENT SKY COVER AT AUTOMATED STATIONS**
 *****  WEATHER ACROSS EASTERN NORTH DAKOTA  *****

CITY           SKY/WX    TMP DP  RH WIND       PRES   REMARKS
GRAND FORKS    CLOUDY    15  10  80 S20       30.29F WCI  -2
GRAND FORKS AF CLOUDY    16  10  79 S17       30.26F WCI   0
GRAND CITY NWS   N/A     14 N/A N/A S13         N/A  WCI   0
BUXTON         NOT AVBL
DEVILS LAKE    MOSUNNY   21  18  86 S15       30.17F WCI   8
FARGO          SUNNY     17  10  74 S14G23    30.35F WCI   3
WAHPETON ARPT  SUNNY     18  12  79 SE15      30.37F WCI   3
$$

 *****  WEATHER ACROSS CENTRAL AND WESTERN NORTH DAKOTA  *****

CITY           SKY/WX    TMP DP  RH WIND       PRES   REMARKS
JAMESTOWN      MOSUNNY   22  17  81 S18G28    30.20F WCI   7
BISMARCK       SUNNY     25  20  81 SW8       30.20S WCI  16
MINOT          SUNNY     27  18  69 SW10      30.12S WCI  17
MINOT AFB      SUNNY     26  26  98 W8        30.12F WCI  18
GARRISON         N/A     26  21  81 SW5       30.14S WCI  20
WILLISTON      SUNNY     25  20  81 SW3       30.18R
DICKINSON      SUNNY     34  24  67 W13       30.14R WCI  25
HETTINGER      SUNNY     31  22  69 W6        30.18R
$$

 *****  OTHER OBSERVATIONS NORTHEAST NORTH DAKOTA  *****

CITY           SKY/WX    TMP DP  RH WIND       PRES   REMARKS
WALHALLA         N/A     14  14 100 S9        30.22F WCI   2
LANGDON        NOT AVBL
CAVALIER       CLOUDY    12   9  85 S14G23    30.23F WCI  -3
GRAFTON        NOT AVBL
CANDO          FAIR      21  18  86 S14       30.16F WCI   8
FORT TOTTEN      N/A     21  18  87 S12       29.95S WCI   9
ROLLA          PTSUNNY   16  16 100 SW10      30.13S WCI   3
RUGBY          FAIR      18  16  93 S7        30.14F WCI   8
 ***** THE ABOVE OBSERVATIONS ARE NON NWS ARE NOT QUALITY
        CONTROLLED AND MAY MIS-REPORT RAIN FOR SNOW...
$$

 *****  OTHER OBSERVATIONS SOUTHEAST NORTH DAKOTA *****

CITY           SKY/WX    TMP DP  RH WIND       PRES   REMARKS
COOPERSTOWN    NOT AVBL
VALLEY CITY    FLURRIES  21  21 100 S17G29    30.24F WCI   7
OAKES            N/A     23  19  86 S20       30.27F WCI   8
GWINNER        SUNNY     21  21 100 S15       30.30F WCI   8
SHEYENNE NWR     N/A     19  13  77 S10       29.95S WCI   7
BUFFALO        NOT AVBL
WYNDMERE         N/A     18  14  86 S12         N/A  WCI   5
 ***** THE ABOVE OBSERVATIONS ARE NON NWS ARE NOT QUALITY
       CONTROLLED AND MAY MIS-REPORT RAIN FOR SNOW...
$$

  *****  WEATHER ACROSS NORTHERN MINNESOTA  *****

CITY           SKY/WX    TMP DP  RH WIND       PRES   REMARKS
FLAG ISLAND    LGT SNOW   3  -2  78 S14       30.32S WCI -15
WARROAD        LGT SNOW   5   0  78 S6        30.33F WCI  -6
ROSEAU         CLOUDY     7   1  78 S9        30.32S WCI  -7
HALLOCK        PTSUNNY   12   7  79 S21       30.28F WCI  -6
THF RVR FALLS  CLOUDY    10   7  85 S14       30.30F WCI  -5
HALSTAD          N/A     15   9  74 S20         N/A  WCI  -2
FOSSTON        PTSUNNY    9   5  85 S14       30.33F WCI  -8
BAUDETTE       FLURRIES   2  -3  80 S6        30.33F WCI  -9
WASKISH        CLOUDY     7   1  78 CALM      30.35S
CROOKSTON      CLOUDY    14   9  79 S17       30.32F WCI  -3
$$
  *****  WEATHER ACROSS CENTRAL AND WEST MINNESOTA  *****

CITY           SKY/WX    TMP DP  RH WIND       PRES   REMARKS
BEMIDJI        PTSUNNY    8   2  78 S9        30.34S WCI  -6
PARK RAPIDS    CLOUDY    10   5  80 S10       30.36F WCI  -4
WADENA         MOSUNNY   10   7  85 S9        30.39F WCI  -2
DETROIT LAKES  CLOUDY    12   9  85 S10       30.36F WCI  -1
MOORHEAD       CLOUDY    16  12  86 SE20      30.36F WCI  -1
FERGUS FALLS   CLOUDY    12   9  85 S14       30.42F WCI  -3
ELBOW LAKE     CLOUDY    13  10  88 SE13      30.39F WCI  -1
MORRIS MN      CLOUDY    16  12  86 SE13      30.40F WCI   2
STAPLES        PTSUNNY   10   7  85 S9        30.41S WCI  -2
WHEATON        CLOUDY    16  12  86 SE14      30.40F WCI   1
$$
  *****  WEATHER ELSEWHERE ACROSS MINNESOTA  *****

CITY           SKY/WX    TMP DP  RH WIND       PRES   REMARKS
DULUTH         CLOUDY     4  -1  80 S3        30.41F
INTRNTL FALLS  CLOUDY     0  -4  83 S3        30.37F
ELY            PTSUNNY    0  -6  78 CALM      30.40F
CLOQUET        PTSUNNY    5   0  78 CALM      30.43S
BRAINERD       PTSUNNY   10   4  76 S10       30.43F WCI  -4
HIBBING        MOSUNNY    3  -3  76 SE5       30.40F WCI  -6
ALEXANDRIA     CLOUDY    12   8  84 S9        30.41F WCI   0
SAINT CLOUD    MOSUNNY   13   7  77 S9        30.49S WCI   1
MINNEAPOLIS    PTSUNNY   14   6  70 S7        30.53S WCI   4
$$

  *****  WEATHER ACROSS SOUTH DAKOTA  *****

CITY           SKY/WX    TMP DP  RH WIND       PRES   REMARKS
SIOUX FALLS    MOSUNNY   24  19  81 S18       30.42F WCI  10
BROOKINGS      NOT AVBL
WATERTOWN      SUNNY     22  19  89 S14       30.33F WCI   9
HURON          SUNNY     25  21  85 S17       30.32F WCI  12
SISSETON         N/A     21  18  88 S15       30.35F WCI   8
ABERDEEN       SUNNY     25  20  81 S20G25    30.28F WCI  11
MITCHELL       SUNNY     26  23  88 S16       30.37F WCI  14
PIERRE         MOSUNNY   27  22  81 SE12      30.22F WCI  17
MOBRIDGE       SUNNY     25  21  85 VRB5      30.19S WCI  19
RAPID CITY     PTSUNNY   33  24  69 NW7       30.17S
$$

  *****  SOME WEATHER IN NEARBY STATES *****

CITY           SKY/WX    TMP DP  RH WIND       PRES   REMARKS
GLASGOW MT     FOG       22  19  89 NW5       30.21R VSB 1   WCI  16
GREAT FALLS MT CLEAR     30  21  69 CALM      30.20S
CHEYENNE WY    PTSUNNY   38  24  57 NW3       30.17F
SCOTTSBLUFF NE PTSUNNY   30  23  75 CALM      30.21S
OMAHA NE       MOSUNNY   24  18  77 S8        30.55S WCI  15
DES MOINES IA  MOSUNNY   22  13  68 CALM      30.56S
DAVENPORT IA   SUNNY     21  10  62 N3        30.56R
CHICAGO IL     PTSUNNY   23   7  50 N8        30.52R WCI  14
EAU CLAIRE WI  PTSUNNY   10   2  69 CALM      30.52S
LA CROSSE WI   MOSUNNY   15   5  64 VRB3      30.57R
$$

  *****  SOME NATIONAL WEATHER *****

CITY           SKY/WX    TMP DP  RH WIND       PRES   REMARKS
LA GUARDIA NY  FLURRIES  33  27  78 NW15G23   29.85F WCI  23
RALEIGH NC     PTSUNNY   44  19  36 NW15G24   30.11R
ATLANTA GA     MOSUNNY   45  25  45 NW16G26   30.32R
NEW ORLEANS LA MOSUNNY   51  39  63 NE18      30.41R
OKLAHOMA CITY  CLOUDY    39  26  59 NE8       30.53R
ALBUQUERQUE NM LGT SNOW  34  30  85 E20       30.27S FOG     WCI  23
SALT LAKE CITY PTSUNNY   38  36  92 CALM      30.13F
LOS ANGELES CA LGT RAIN  62  50  64 CALM      29.92S
BOISE ID       FOG       30  29  96 SW3       30.27S VSB<1/4
SEATTLE WA     FOG       34  34 100 E3        30.32S VSB 1/2
$$

*** WEATHER ACROSS MANITOBA...SASKATCHEWAN AND ONTARIO ***
                ***ONTARIO***

CITY           SKY/WX    TMP DP  RH WIND       PRES   REMARKS
GERALDTON      MOSUNNY   -8 -15  71 SW5       30.38S WCI -19
THUNDER BAY    CLOUDY     1  -6  71 W2        30.49S
SIOUX LOOKOUT  PTSUNNY   -6  -9  84 SW7       30.34F WCI -20
TORONTO        MOSUNNY   10   1  67 N31G40    30.20R WCI -12
BIG TROUT LK   SUNNY    -13 -20  70 W8        30.23S WCI -30
PICKLE LAKE    PTSUNNY  -11 -18  70 SW6       30.29F WCI -25
DRYDEN         CLOUDY    -6 -11  77 S7        30.33F WCI -20
KENORA         LGT SNOW  -2  -8  78 S10       30.30F WCI -19
$$
                *** MANITOBA***

CITY           SKY/WX    TMP DP  RH WIND       PRES   REMARKS
BRANDON        PTSUNNY    9   7  92 NE3       30.16S
DAUPHIN        LGT SNOW  16  12  86 W10       30.15S WCI   3
ISLAND LAKE    FLURRIES  -6 -13  71 S3        30.21F
PILOT MOUND      N/A     18  16  93 S16         N/A  WCI   3
THE PAS        FLURRIES   3   0  85 N9        30.21R WCI -11
THOMPSON       MOCLDY    -8 -15  71 W6        30.17F WCI -21
WINNIPEG       FLURRIES   9   3  78 S20       30.27F WCI -11
LYNN LAKE      FLURRIES -11 -17  77 NW13G20   30.17R WCI -32
CHURCHILL      CRYSTALS -17 -24  70 NW20      30.09R WCI -44
GILLAM         PTCLDY   -15 -20  76 W9        30.15S WCI -33
$$
                ***SASKATCHEWAN***

CITY           SKY/WX    TMP DP  RH WIND       PRES   REMARKS
ESTEVAN        FOG       19  18  93 W15       30.14S VSB 1/2 WCI   5
KINDERSLEY     MOCLDY    14  12  92 CALM      30.23R
LLOYDMINSTER   CLOUDY    19  18  93 N12       30.23R WCI   7
PRINCE ALBERT  CLOUDY    14  10  85 W6        30.24R WCI   5
REGINA         MOCLDY    18  18 100 NW12      30.19R WCI   5



USA.gov is the U.S. government's official web portal to all federal, state and local government web resources and services.